Dewpoint
11 17 13 15 16 18 22 19 18 17 15 13 11 11 9 7 7 11 11 9 10 9 8 7 9 8 9 10 22 25 40 46 46 48 50 50 53 52 52 55 57 59 59 60 60 63 64 64 63 62 62 63 64 65 66 66 66 67 66 65 65 66 66 65 64 65 66 65 66 66 65 64 65 65 67 66 66 66 66 66 66 66 67 67 68 68
18 18 15 14 16 19 24 27 28 26 24 15 13 12 8 8 8 10 11 10 12 19 8 10 8 10 12 13 18 28 31 35 43 45 50 49 50 52 52 53 56 58 59 62 62 63 64 62 62 62 62 63 63 64 65 65 66 67 66 65 65 65 66 65 65 64 65 66 64 64 65 64 64 64 64 64 66 66 66 67 67 67 67 68 68 67
20 16 17 17 22 28 29 29 27 26 25 20 15 12 11 8 10 15 13 11 11 14 9 5 7 9 12 12 14 25 26 27 35 44 46 48 47 49 50 51 55 58 58 61 63 63 62 63 61 61 63 64 64 65 65 65 65 67 67 67 66 66 65 66 65 66 67 67 67 66 65 65 64 65 65 65 66 66 66 68 68 68 68 67 66 66
22 15 18 19 28 28 28 27 27 27 27 21 18 14 11 10 12 9 20 13 14 13 13 16 15 15 17 18 19 24 26 28 27 36 43 44 46 47 49 51 53 56 58 59 61 62 61 61 61 61 63 64 65 64 64 65 65 65 65 66 66 64 65 66 66 66 66 66 67 66 65 66 65 64 66 66 67 67 67 66 67 67 67 66 66 65
14 19 17 24 24 22 27 26 25 23 19 23 21 14 11 10 12 10 10 18 22 16 21 13 15 10 13 11 13 24 36 36 35 33 44 48 46 49 52 52 54 55 58 59 61 62 61 61 61 62 63 64 64 64 64 65 65 65 66 66 65 65 65 66 65 65 65 65 65 65 65 65 65 65 65 65 65 66 66 66 66 66 66 65 65 65
16 23 25 20 19 18 22 23 23 23 16 17 24 21 16 16 15 10 13 10 12 11 17 13 7 8 12 11 11 19 39 36 35 35 33 40 48 50 52 54 55 56 57 58 60 62 62 61 62 62 63 63 63 64 64 65 65 65 66 66 66 65 66 65 65 65 65 65 64 63 62 62 62 62 64 63 64 64 65 64 66 66 65 65 64 63
19 28 24 21 22 19 17 18 20 20 16 17 16 20 17 10 12 10 10 14 6 4 22 23 13 7 15 17 18 17 25 26 41 42 37 34 37 45 49 52 54 54 55 57 60 61 61 61 61 62 63 63 63 63 64 65 65 65 66 65 64 65 65 64 65 65 65 64 63 64 62 62 62 61 63 63 64 64 64 65 66 65 66 63 64 63
23 24 22 23 24 21 20 17 20 19 15 12 21 13 10 10 11 14 12 10 6 20 25 21 14 12 11 14 18 17 23 22 35 43 44 40 39 41 50 53 54 53 56 58 61 61 61 61 61 61 63 63 62 63 64 65 65 65 66 65 65 65 65 65 65 65 64 65 65 64 64 63 63 63 63 65 65 66 65 65 65 64 64 64 63 63
28 27 26 24 24 19 17 16 21 19 15 13 16 11 11 11 16 11 10 12 12 17 12 16 16 15 12 14 18 24 21 27 40 44 43 43 44 47 49 51 52 54 56 57 60 60 61 61 62 62 64 64 64 64 64 64 65 66 65 65 65 65 65 65 64 65 65 65 65 64 65 64 64 64 63 63 64 64 64 64 63 63 62 63 63 62
24 25 23 20 19 16 17 16 18 19 17 15 15 13 14 14 14 14 13 11 20 18 12 14 19 11 6 10 14 25 21 32 42 43 44 45 46 49 51 53 55 56 57 58 60 60 61 61 62 62 63 64 61 63 63 64 65 65 64 64 64 64 65 65 65 66 65 64 66 64 65 65 64 63 63 63 63 63 63 63 63 63 62 61 62 63
21 29 27 21 18 17 16 17 17 17 15 16 14 12 14 13 17 18 18 18 22 16 14 12 21 10 5 9 18 26 42 43 43 43 44 46 48 48 52 53 55 55 57 58 59 59 60 61 62 62 62 63 62 63 64 64 64 64 64 64 63 64 65 65 65 65 66 66 64 65 65 65 63 63 62 62 63 61 62 62 62 61 60 60 60 62
20 18 19 21 24 22 20 20 20 19 16 14 13 12 13 17 20 20 22 21 16 11 12 16 18 15 10 13 41 44 45 43 44 44 45 45 46 47 54 55 56 56 56 57 58 58 59 61 62 62 61 63 63 64 64 64 63 63 63 63 63 64 65 65 65 65 64 65 66 66 66 65 63 63 61 62 61 61 61 61 60 60 60 60 61 61
21 19 18 18 24 19 18 14 15 15 15 13 14 13 14 14 14 13 14 15 12 10 18 15 13 16 11 33 39 43 43 43 46 44 46 46 45 49 51 55 57 59 58 57 57 59 60 60 61 61 62 63 63 62 63 63 63 63 62 63 63 63 64 64 64 65 65 65 66 66 65 65 64 63 62 62 61 60 59 59 59 59 58 57 58 58
20 18 19 19 19 21 18 13 12 11 13 12 12 15 15 8 11 12 9 14 9 9 19 19 15 11 10 40 43 43 46 46 47 48 48 47 48 51 52 55 55 56 58 57 56 57 57 60 60 60 60 61 61 62 62 63 63 63 62 62 63 63 64 64 64 64 64 65 65 65 64 64 63 64 64 60 60 60 59 59 59 58 57 57 59 60
16 17 17 19 18 19 18 16 13 13 13 10 11 9 14 13 12 12 6 8 9 7 24 18 19 12 8 32 42 45 47 48 48 47 50 50 52 54 53 55 55 55 55 53 54 54 56 59 60 61 61 60 60 62 62 63 62 62 62 62 62 63 63 63 63 63 65 65 65 65 65 64 64 64 62 60 61 61 60 59 58 57 57 57 58 57
15 15 18 17 17 17 16 18 18 14 14 12 11 11 13 14 15 10 18 15 14 9 18 21 15 17 28 42 45 46 46 49 50 50 49 50 52 53 53 55 55 55 55 55 55 56 58 58 60 61 62 61 60 61 62 62 63 63 62 62 62 62 63 64 64 64 64 63 64 64 64 64 63 62 61 60 62 62 60 59 58 58 58 58 57 59
16 17 15 17 18 17 15 16 16 16 16 16 12 14 13 17 16 20 25 33 24 15 11 20 19 18 39 40 41 44 44 48 49 51 52 52 52 54 54 54 54 54 54 55 56 57 58 58 60 60 61 61 61 60 62 62 63 63 62 62 61 62 62 63 63 64 64 63 62 63 64 63 62 61 60 61 63 63 62 60 59 58 58 60 59 59
21 23 17 15 14 16 16 15 14 14 11 17 14 11 15 16 19 22 12 19 13 10 17 21 14 18 19 26 39 42 44 45 47 49 51 53 53 54 55 56 56 56 57 57 57 58 58 59 59 59 59 61 61 61 61 62 62 63 63 62 61 62 62 62 63 64 64 63 62 63 63 63 62 60 60 60 61 61 61 60 60 60 59 58 59 59
20 17 16 13 11 14 17 15 13 14 15 13 14 16 15 16 14 18 18 15 15 14 10 14 13 14 18 28 37 40 42 45 47 50 51 52 53 53 55 55 57 58 57 56 56 57 57 58 59 59 59 59 62 62 61 61 62 63 63 62 62 61 61 62 62 64 64 63 62 63 63 62 61 60 59 60 60 61 60 60 59 59 58 59 59 58
27 19 18 17 15 15 14 14 16 13 14 15 18 15 15 22 22 17 17 14 17 12 15 19 17 14 30 39 41 41 43 45 47 48 49 51 53 54 53 54 54 56 57 55 54 55 56 57 59 58 59 59 61 62 61 62 62 63 62 62 63 62 61 61 62 63 64 63 62 63 63 62 60 59 59 60 60 61 61 60 59 58 59 59 56 58
25 29 20 18 17 16 14 16 13 13 15 14 15 15 16 24 22 20 28 15 15 13 11 11 13 28 39 41 41 43 44 46 48 48 50 51 53 53 53 53 54 55 55 54 55 56 56 58 59 60 60 59 60 61 60 61 62 62 62 61 62 63 62 61 62 62 63 62 62 63 63 62 61 61 59 60 60 60 59 60 59 58 57 56 57 58
24 25 20 22 15 14 13 19 25 22 18 15 15 15 11 17 17 13 15 15 17 15 15 13 12 33 41 42 44 43 45 47 49 49 50 51 51 52 53 55 55 56 56 56 57 57 57 58 58 59 60 60 59 59 61 61 62 62 62 61 61 62 61 61 61 61 62 62 63 63 63 63 62 61 59 60 60 59 58 58 59 58 56 56 57 57
31 29 24 19 18 19 22 26 28 28 25 23 19 16 11 19 20 19 13 18 17 13 17 20 18 31 44 43 45 46 47 49 50 49 49 50 51 52 53 54 53 53 54 54 55 56 57 57 57 58 59 60 59 60 61 61 61 61 61 61 62 61 61 62 62 61 61 61 63 63 63 63 62 61 60 60 59 59 57 58 59 57 56 54 54 55
30 25 22 19 18 20 24 27 28 28 28 23 22 26 22 19 22 21 20 26 20 21 16 14 16 32 45 45 46 48 47 47 48 49 48 49 49 50 49 50 50 51 53 54 53 54 56 58 58 57 58 58 59 60 60 60 60 61 62 61 61 61 62 61 61 62 62 61 62 63 63 62 61 61 60 60 59 59 58 58 58 56 55 54 54 52
24 27 24 20 19 20 23 24 25 29 27 27 30 35 31 28 28 30 29 30 17 22 18 15 14 31 44 47 46 46 45 45 45 45 47 47 48 48 48 49 49 51 51 52 53 53 54 55 55 56 56 56 57 57 59 59 59 59 60 61 61 60 61 61 62 62 62 62 63 63 63 63 62 61 60 59 58 59 58 58 57 55 54 54 54 53
26 31 26 19 19 18 20 19 19 23 26 32 34 33 32 28 31 29 17 18 17 23 19 17 24 40 45 45 45 45 44 43 44 45 45 45 45 46 46 47 48 50 50 51 52 52 53 53 54 55 56 56 56 57 58 58 58 58 59 60 60 59 59 60 61 61 61 61 62 62 62 63 62 61 60 59 59 60 58 57 56 56 55 53 52 53
33 37 35 35 30 21 23 29 34 33 30 24 31 34 35 34 35 38 27 18 15 24 22 21 29 39 41 43 43 44 44 43 43 44 45 45 45 45 46 46 47 47 49 49 50 51 52 52 53 55 56 56 56 56 57 58 58 58 59 60 59 59 59 59 60 60 60 61 60 60 61 60 61 61 60 61 61 60 57 56 56 55 53 52 53 53
36 32 37 40 35 31 32 33 33 32 31 34 33 36 34 37 39 36 24 25 37 25 19 39 41 40 40 42 42 43 43 43 43 44 43 44 45 45 46 46 46 46 47 48 49 49 49 50 51 52 53 55 56 56 57 57 57 58 58 57 58 59 60 60 60 60 60 60 60 59 60 60 60 61 60 58 58 58 58 57 56 54 53 52 53 52
34 28 36 38 35 35 34 33 33 32 32 34 35 38 38 37 39 36 33 37 40 22 17 38 42 41 41 42 42 43 43 43 43 43 43 43 44 45 45 44 44 44 44 45 46 46 47 47 48 49 50 51 52 52 53 54 56 58 57 57 57 58 59 60 60 59 58 58 58 58 59 58 58 60 59 59 58 56 56 56 58 56 55 53 53 53
39 32 37 37 36 36 35 35 36 32 33 34 36 35 37 40 40 40 40 40 37 38 39 39 41 41 40 40 40 41 42 43 42 43 43 43 43 43 43 43 44 44 42 42 43 45 45 45 46 47 47 47 48 50 51 52 52 54 56 57 57 57 58 60 58 58 57 57 56 57 57 57 60 59 59 59 59 59 58 57 57 56 56 55 54 54
40 32 38 34 34 35 36 36 35 32 35 36 35 35 36 37 37 38 39 40 40 39 41 42 40 37 38 40 40 41 41 42 42 42 41 42 43 43 43 42 43 43 43 43 43 43 43 43 43 45 45 45 45 46 48 50 50 50 50 51 53 55 57 58 58 57 56 56 56 56 55 56 57 58 58 59 59 58 56 55 57 56 55 55 56 56
40 34 38 36 30 32 36 35 35 36 36 35 36 36 36 36 36 37 35 39 39 38 39 40 37 36 38 39 40 41 41 40 40 40 40 41 41 41 41 40 41 41 42 42 41 42 41 41 41 42 43 43 43 44 45 46 46 46 47 48 48 49 52 55 56 56 56 55 55 55 55 57 58 57 58 58 58 59 58 57 56 56 56 56 56 56
40 35 33 32 29 31 35 35 35 34 35 29 32 34 35 36 37 37 38 39 41 40 37 34 34 37 38 39 38 39 39 39 39 39 40 40 40 40 40 39 39 40 40 40 41 42 43 41 40 40 40 39 39 40 41 42 42 42 44 44 47 48 48 47 49 51 54 55 54 54 56 55 55 56 56 57 57 57 56 56 54 55 56 57 57 57
38 36 32 35 26 30 34 35 34 28 25 26 35 37 37 36 37 36 36 38 40 41 37 38 37 38 38 38 37 37 38 38 39 40 41 40 40 40 40 40 40 39 39 40 40 40 41 42 41 39 39 39 39 38 39 41 41 42 42 41 43 44 44 45 46 47 46 47 50 54 55 55 55 56 56 56 56 55 54 55 56 58 57 57 57 56
37 38 31 32 28 28 34 34 29 26 26 34 38 37 38 37 38 38 37 38 38 39 39 37 37 37 37 38 38 37 38 39 40 39 39 40 40 39 39 39 39 39 39 39 39 39 40 41 41 39 38 37 38 38 38 38 37 38 38 39 39 41 42 41 42 43 44 44 44 50 54 55 55 55 55 55 55 56 55 54 55 55 56 56 56 56
33 32 31 30 29 29 30 28 24 25 32 36 36 37 38 37 37 37 36 37 37 38 38 37 37 37 37 38 38 39 38 39 40 40 40 41 40 39 38 38 38 39 40 40 39 39 39 40 40 41 40 38 35 35 35 36 37 37 37 37 38 38 39 39 39 40 41 41 41 43 44 48 50 52 54 55 55 55 56 54 55 56 56 57 57 57
39 40 32 28 32 25 26 27 29 33 33 34 35 35 35 34 35 35 31 34 38 38 38 36 36 37 37 37 38 39 38 37 37 38 40 40 41 40 39 39 40 40 40 40 40 39 40 40 40 41 41 40 38 36 36 34 34 35 35 34 34 35 36 37 37 37 39 40 40 41 42 43 44 46 48 51 53 54 55 56 57 57 57 56 56 56
36 34 34 29 26 28 25 26 27 27 25 30 34 35 36 37 37 38 37 34 38 39 38 36 36 36 37 37 38 39 38 34 33 34 39 41 41 40 41 39 39 40 41 41 41 40 40 40 40 40 40 39 39 39 37 36 34 33 34 34 32 32 33 34 35 36 37 38 39 40 41 41 41 43 45 47 51 52 52 53 54 55 56 56 56 55
37 37 36 30 27 27 26 24 24 23 29 32 33 34 35 36 37 38 36 32 38 40 40 38 37 37 37 38 39 40 38 33 32 33 38 40 40 41 39 41 39 38 38 40 41 41 40 40 40 39 39 38 38 38 38 38 37 34 35 36 34 33 33 33 33 35 36 37 38 39 41 42 42 42 43 43 45 47 47 47 47 48 50 52 53 54
32 31 31 27 29 27 26 23 25 29 28 32 34 34 34 37 38 36 29 29 37 39 39 38 37 37 37 38 39 39 36 31 32 34 38 39 39 39 38 39 39 39 36 36 39 40 41 41 40 38 37 36 37 38 38 38 37 36 35 35 35 34 34 34 35 34 34 35 37 38 39 41 42 42 42 43 44 46 46 46 47 48 47 46 46 47
28 27 29 27 27 27 26 27 27 28 32 34 34 34 35 39 36 29 26 33 38 38 38 38 38 38 38 38 38 34 35 37 37 37 38 37 36 35 35 35 35 36 36 33 35 37 38 38 38 37 37 35 34 35 36 36 36 36 36 36 35 34 34 35 35 36 36 36 35 36 37 39 41 42 42 42 43 44 44 45 46 46 46 48 49 49
26 28 26 27 21 25 23 24 26 29 32 33 34 35 37 37 29 28 34 39 38 38 38 38 39 40 40 39 37 36 36 38 36 37 37 36 34 33 32 31 31 32 32 34 35 34 34 34 34 33 33 36 34 33 34 34 34 34 34 35 35 35 34 34 34 35 34 34 34 36 37 39 41 42 43 42 42 42 42 43 45 46 46 44 45 47
25 24 24 25 27 24 24 23 22 24 31 34 35 35 36 32 33 36 40 39 38 38 38 40 41 40 39 38 38 37 35 36 36 36 36 36 35 33 32 32 31 30 30 31 32 30 31 31 32 33 33 33 33 34 33 34 33 33 34 34 35 34 34 34 34 34 35 35 35 36 36 37 40 41 42 42 42 42 42 41 41 43 44 45 44 44
30 25 25 26 29 23 24 23 23 29 33 35 34 31 35 34 37 37 41 38 39 39 38 37 37 39 39 38 37 36 36 37 37 36 35 34 33 34 34 33 32 30 30 30 30 31 31 31 32 32 33 32 33 33 33 34 33 33 33 34 34 34 35 35 35 35 34 35 35 35 35 35 36 38 39 40 40 40 41 41 40 39 40 40 40 39
32 29 29 26 31 28 27 28 33 34 35 34 35 35 35 37 39 41 40 38 37 35 36 35 35 37 36 36 36 34 33 33 33 33 34 34 33 32 32 32 32 31 31 32 31 32 31 30 32 32 32 33 34 33 33 33 33 33 33 34 33 32 33 34 34 35 34 34 34 35 35 36 37 38 37 37 37 36 36 37 38 37 37 38 37 37
34 33 34 32 31 33 33 35 35 34 35 34 35 35 35 36 38 39 39 37 36 34 34 33 34 33 33 33 31 31 30 31 31 31 32 33 34 32 32 31 31 31 32 32 32 31 30 31 32 32 33 32 33 34 34 34 33 34 34 33 34 33 33 34 34 34 34 34 35 34 33 36 36 37 38 38 36 37 36 37 35 35 36 35 36 35
32 32 31 29 32 29 27 35 34 35 35 35 34 35 36 36 37 39 39 39 35 31 30 30 30 31 31 30 29 29 29 29 30 31 31 31 31 31 31 32 33 33 33 33 33 33 31 31 31 32 33 34 34 34 34 34 33 33 33 33 33 33 34 33 35 35 35 35 35 36 34 36 35 34 36 38 36 36 36 35 35 36 34 34 35 36
29 31 29 29 29 28 29 33 35 36 36 36 36 35 35 35 36 37 39 40 39 35 31 30 30 30 30 30 29 28 27 28 29 30 29 30 30 30 29 30 31 31 32 34 32 32 33 32 32 33 33 34 34 34 33 33 33 33 34 33 33 33 33 34 34 34 35 36 35 33 32 33 32 32 32 34 35 34 34 34 36 34 36 37 36 37
30 32 28 30 30 32 35 34 34 34 35 36 36 36 37 36 37 36 36 37 37 36 33 33 34 31 30 29 29 28 27 27 28 28 28 28 29 30 30 30 30 30 31 30 32 33 33 32 32 34 33 34 34 34 34 34 33 34 34 33 33 33 33 34 35 36 37 35 33 32 31 33 33 33 32 31 31 31 33 35 37 36 36 37 36 35
30 28 30 30 29 29 30 33 34 26 26 34 36 36 37 37 37 36 37 36 36 35 35 35 37 39 38 36 32 29 28 29 28 27 27 27 28 30 30 29 30 29 29 31 32 33 34 35 35 35 34 34 34 33 33 34 33 33 32 32 32 33 34 35 36 36 34 33 32 32 31 32 30 32 32 32 31 32 33 32 33 34 36 36 34 34
33 32 31 27 26 26 29 29 30 30 32 32 34 36 37 39 39 38 38 38 38 38 38 38 37 35 35 33 31 28 27 28 28 27 27 27 29 30 30 28 27 27 28 30 31 32 34 34 34 34 34 34 34 33 33 33 33 33 32 32 32 34 34 35 35 33 31 30 31 32 32 31 30 30 30 32 32 34 32 33 32 33 33 34 34 34